Skip Page Navigation
NASA JPL Caltech
NASA Logo - Jet Propulsion Laboratory + View the NASA Portal
+ Center for Near-Earth Object Studies
JPL Home Earth Solar System Stars & Galaxies Technology
JPL Solar System Dynamics
BODIES ORBITS EPHEMERIDES TOOLS PHYSICAL DATA DISCOVERY FAQ SITE MAP
JPL Small-Body Database Browser
Search: [ help ]  
30033 Kevinlee (2000 DP68)
Classification: Main-belt Asteroid          SPK-ID: 2030033
Ephemeris | Orbit Diagram | Orbital Elements | Mission Design | Physical Parameters | Discovery Circumstances ]

[ show orbit diagram ]
Orbital Elements at Epoch 2459200.5 (2020-Dec-17.0) TDB
Reference: JPL 26 (heliocentric ecliptic J2000)
 Element Value Uncertainty (1-sigma)   Units 
e .07102625199938938 3.5773e-08  
a 2.26888533356172 9.762e-09 au
q 2.107734912102446 8.1164e-08 au
i 1.911861257903914 4.3394e-06 deg
node 169.9771509708608 0.00011264 deg
peri 76.46158095384115 0.00011663 deg
M 317.4440848249576 3.0709e-05 deg
tp 2459348.062050784265
(2021-May-13.56205078)
0.00010662 TDB
period 1248.295050496055
3.42
8.0563e-06
2.206e-08
d
yr
n .2883933568886147 1.8612e-09 deg/d
Q 2.430035755020993 1.0455e-08 au
  Orbit Determination Parameters
   # obs. used (total)      750  
   data-arc span      10215 days (27.97 yr)  
   first obs. used      1993-02-23  
   last obs. used      2021-02-11  
   planetary ephem.      DE441  
   SB-pert. ephem.      SB441-N16  
   condition code      0  
   norm. resid. RMS      .5364  
   source      ORB  
   producer      Otto Matic  
   solution date      2021-Apr-13 06:31:01  

Additional Information
 Earth MOID = 1.09355 au 
 Jupiter MOID = 2.5667 au 
 T_jup = 3.610 
[ show covariance matrix ]

Ephemeris | Orbit Diagram | Orbital Elements | Mission Design | Physical Parameters | Discovery Circumstances ]

Physical Parameter Table
Parameter Symbol Value Units Sigma Reference Notes
absolute magnitude H 16.2   n/a MPO452592  

30033 Kevinlee           Discovered 2000 Feb. 29 by the Lincoln Laboratory Near-Earth Asteroid Research Team at Socorro.
Kevin Lee (b. 1996) is a finalist in the 2014 Intel Science Talent Search, a science competition for high school seniors, for his bioengineering project. He attends the University High School, Irvine, California.
NOTE: some special characters may not display properly (any characters within {} are an attempt to place the proper accent above a character)
Reference: MPC batch dated 2014-04-15Last Updated: 2014-04-17

Alternate Designations
 2000 DP68 = 1997 LQ15 
Ephemeris | Orbit Diagram | Orbital Elements | Mission Design | Physical Parameters | Discovery Circumstances ]
ABOUT SSD CREDITS/AWARDS PRIVACY/COPYRIGHT GLOSSARY LINKS
FirstGov 2021-Jun-25 05:33 UT
(server date/time)  
NASA Home Page
Site Manager:   Ryan S. Park
Webmaster  Alan B. Chamberlin